Location: Piedmont
(45.8748°N, 74.1254°W)
Time: 14:49:35
(UTC+00:00)

N. Korean satellite - Pass Details

Date: 10 December 2021
Orbit: 446 x 491 km, 97.3° (Epoch: 18 January)

Event Time Altitude Azimuth Distance (km) Brightness Sun altitude
Rises 21:53:07 0° 189° (S) 2,506 10.7 -7.1°
Reaches altitude 10° 21:55:21 10° 200° (SSW) 1,625 10.0 -7.5°
Maximum altitude 21:58:27 30° 263° (W) 865 8.7 -8.0°
Drops below altitude 10° 22:01:33 10° 327° (NNW) 1,614 9.3 -8.5°
Sets 22:03:45 0° 338° (NNW) 2,486 10.2 -8.8°
